Tracking 25648 objects as of 16-May-2022
HD Live streaming from Space Station
objects crossing your sky now

COSMOS 2251 DEB

Track COSMOS 2251 DEB now!
10-day predictions


NORAD ID: 33791
Int'l Code: 1993-036AG
Perigee: 759.8 km
Apogee: 807.5 km
Inclination: 74.2 °
Period: 100.4 minutes
Semi major axis: 7154 km
RCS: 0.2004 m2 (medium)
Launch date: June 16, 1993
Source: Commonwealth of Independent States (former USSR) (CIS)
Launch site: PLESETSK MISSILE AND SPACE COMPLEX (PKMTR)

Note: This is SATELLITE DEBRIS
aabbcc
Your satellite tracking list
Your tracking list is empty




NASA's NSSDC Master Catalog

Two Line Element Set (TLE):
1 33791U 93036AG  22135.82621538  .00000738  00000-0  26852-3 0  9996
2 33791  74.1760 264.7058 0033333 103.1997  20.6848 14.34573695692649
Source of the keplerian elements: AFSPC